TimePDT,TemperatureF,Dew PointF,Humidity,Sea Level PressureIn,VisibilityMPH,Wind Direction,Wind SpeedMPH,Gust SpeedMPH,PrecipitationIn,Events,Conditions,WindDirDegrees,DateUTC
12:53 AM,90.0,63.0,40,29.78,10.0,WNW,3.5,-,N/A,,Clear,290,2013-09-02 07:53:00
1:53 AM,87.1,64.9,48,29.79,10.0,Calm,Calm,-,N/A,,Clear,0,2013-09-02 08:53:00
2:53 AM,87.1,64.0,46,29.79,10.0,Calm,Calm,-,N/A,,Clear,0,2013-09-02 09:53:00
3:53 AM,84.9,64.9,51,29.79,10.0,Calm,Calm,-,N/A,,Clear,0,2013-09-02 10:53:00
4:53 AM,84.0,64.9,53,29.79,10.0,Calm,Calm,-,N/A,,Clear,0,2013-09-02 11:53:00
5:53 AM,81.0,66.9,62,29.80,10.0,Calm,Calm,-,N/A,,Clear,0,2013-09-02 12:53:00
6:53 AM,82.9,64.9,54,29.82,10.0,Calm,Calm,-,N/A,,Clear,0,2013-09-02 13:53:00
7:53 AM,87.1,64.9,48,29.83,10.0,Calm,Calm,-,N/A,,Clear,0,2013-09-02 14:53:00
8:53 AM,91.0,64.9,42,29.84,10.0,Calm,Calm,-,N/A,,Clear,0,2013-09-02 15:53:00
9:53 AM,96.1,59.0,29,29.84,10.0,SW,3.5,-,N/A,,Clear,220,2013-09-02 16:53:00
10:53 AM,100.0,55.9,23,29.83,10.0,Calm,Calm,-,N/A,,Partly Cloudy,0,2013-09-02 17:53:00
11:53 AM,102.9,57.0,22,29.81,10.0,SE,8.1,-,N/A,,Clear,140,2013-09-02 18:53:00
12:53 PM,104.0,57.0,21,29.79,10.0,SE,6.9,-,N/A,,Scattered Clouds,140,2013-09-02 19:53:00
1:53 PM,105.1,55.0,19,29.77,10.0,Variable,4.6,-,N/A,,Clear,0,2013-09-02 20:53:00
2:53 PM,104.0,55.9,20,29.74,10.0,NNW,6.9,-,N/A,,Mostly Cloudy,330,2013-09-02 21:53:00
3:53 PM,99.0,60.1,28,29.74,10.0,SSW,11.5,-,N/A,,Clear,200,2013-09-02 22:53:00
4:53 PM,100.0,59.0,26,29.74,10.0,South,10.4,-,N/A,,Clear,190,2013-09-02 23:53:00
5:53 PM,100.9,57.0,23,29.72,10.0,NNE,4.6,-,N/A,,Overcast,20,2013-09-03 00:53:00
6:53 PM,98.1,57.9,26,29.73,10.0,NW,10.4,-,N/A,,Clear,320,2013-09-03 01:53:00
7:53 PM,97.0,55.9,25,29.75,10.0,NW,13.8,20.7,N/A,,Clear,310,2013-09-03 02:53:00
8:53 PM,96.1,57.0,27,29.78,10.0,NW,13.8,-,N/A,,Mostly Cloudy,320,2013-09-03 03:53:00
9:53 PM,95.0,60.1,31,29.78,10.0,WNW,8.1,-,N/A,,Scattered Clouds,290,2013-09-03 04:53:00
10:53 PM,91.9,61.0,35,29.80,10.0,SE,5.8,-,N/A,,Clear,140,2013-09-03 05:53:00
11:53 PM,91.9,61.0,35,29.80,10.0,NE,3.5,-,N/A,,Clear,40,2013-09-03 06:53:00